Location: Stoke Bliss
(52.2667°N, 2.5167°W)
Time: 07:35:55
(UTC+00:00)

Envisat - Pass Details

Date: 07 December 2021
Orbit: 764 x 766 km, 98.2° (Epoch: 17 January)

Event Time Altitude Azimuth Distance (km) Brightness Sun altitude
Rises 16:38:20 0° 181° (S) 3,222 6.7 -6.0°
Reaches altitude 10° 16:40:42 10° 187° (S) 2,300 6.0 -6.3°
Maximum altitude 16:45:35 47° 261° (W) 1,012 4.2 -6.9°
Drops below altitude 10° 16:50:31 10° 336° (NNW) 2,317 5.5 -7.6°
Sets 16:52:56 0° 342° (NNW) 3,248 6.2 -7.9°
